Time,TemperatureF,DewpointF,PressureIn,WindDirection,WindDirectionDegrees,WindSpeedMPH,WindSpeedGustMPH,Humidity,HourlyPrecipIn,Conditions,Clouds,dailyrainin,SolarRadiationWatts/m^2,SoftwareType,DateUTC
2013-08-05 00:00:00,79.9,75.3,30.01,SSW,202,1.0,4.0,86,0.00,,SCT024TCU,0.00,0.00,VWS V14.01,2013-08-05 04:00:00,
2013-08-05 00:05:00,79.8,75.6,30.01,SSW,202,0.0,2.0,87,0.00,,SCT024TCU,0.00,0.00,VWS V14.01,2013-08-05 04:05:00,
2013-08-05 00:10:00,79.7,75.5,30.01,SSW,202,1.0,4.0,87,0.00,,SCT024TCU,0.00,0.00,VWS V14.01,2013-08-05 04:10:00,
2013-08-05 00:15:00,79.6,75.4,30.01,SSW,202,1.0,3.0,87,0.00,,SCT024TCU,0.00,0.00,VWS V14.01,2013-08-05 04:15:00,
2013-08-05 00:20:00,79.5,75.3,30.01,SSW,202,1.0,2.0,87,0.00,,SCT024TCU,0.00,0.00,VWS V14.01,2013-08-05 04:20:00,
2013-08-05 00:25:00,79.4,75.2,30.01,SSW,202,0.0,2.0,87,0.00,,SCT024TCU,0.00,0.00,VWS V14.01,2013-08-05 04:25:00,
2013-08-05 00:30:00,79.3,75.1,30.01,SSW,202,0.0,2.0,87,0.00,,SCT024TCU,0.00,0.00,VWS V14.01,2013-08-05 04:30:00,
2013-08-05 00:35:00,79.3,75.1,30.01,SSW,202,0.0,2.0,87,0.00,,SCT024TCU,0.00,0.00,VWS V14.01,2013-08-05 04:35:00,
2013-08-05 00:40:00,79.2,75.0,30.01,SSW,202,0.0,2.0,87,0.00,,SCT024TCU,0.00,0.00,VWS V14.01,2013-08-05 04:40:00,
2013-08-05 00:45:00,79.2,75.0,30.01,SSW,202,0.0,1.0,87,0.00,,SCT024TCU,0.00,0.00,VWS V14.01,2013-08-05 04:45:00,
2013-08-05 00:50:00,79.2,75.0,30.01,SSW,202,0.0,0.0,87,0.00,,SCT024TCU,0.00,0.00,VWS V14.01,2013-08-05 04:50:00,
2013-08-05 00:55:00,79.1,74.9,30.01,SSW,202,0.0,0.0,87,0.00,,SCT024TCU,0.00,0.00,VWS V14.01,2013-08-05 04:55:00,
2013-08-05 01:00:00,79.1,74.9,30.01,SSW,202,0.0,1.0,87,0.00,,SCT024TCU,0.00,0.00,VWS V14.01,2013-08-05 05:00:00,
2013-08-05 01:05:00,79.1,74.9,30.01,SSW,202,0.0,1.0,87,0.00,,SCT024TCU,0.00,0.00,VWS V14.01,2013-08-05 05:05:00,
2013-08-05 01:10:00,79.1,74.9,30.01,SSW,202,0.0,1.0,87,0.00,,SCT024TCU,0.00,0.00,VWS V14.01,2013-08-05 05:10:00,
2013-08-05 01:15:00,79.0,74.8,30.01,SSW,202,0.0,1.0,87,0.00,,SCT024TCU,0.00,0.00,VWS V14.01,2013-08-05 05:15:00,
2013-08-05 01:20:00,79.0,75.2,30.01,SSW,202,0.0,2.0,88,0.00,,SCT024TCU,0.00,0.00,VWS V14.01,2013-08-05 05:20:00,
2013-08-05 01:25:00,79.0,75.2,30.01,SSW,202,0.0,1.0,88,0.00,,SCT024TCU,0.00,0.00,VWS V14.01,2013-08-05 05:25:00,
2013-08-05 01:30:00,79.0,75.2,30.00,SSW,202,0.0,1.0,88,0.00,,SCT024TCU,0.00,0.00,VWS V14.01,2013-08-05 05:30:00,
2013-08-05 01:35:00,79.1,75.2,30.00,SSW,202,0.0,3.0,88,0.00,,SCT024TCU,0.00,0.00,VWS V14.01,2013-08-05 05:35:00,
2013-08-05 01:40:00,79.1,75.2,30.00,SSW,202,0.0,2.0,88,0.00,,SCT024TCU,0.00,0.00,VWS V14.01,2013-08-05 05:40:00,
2013-08-05 01:45:00,79.0,75.2,30.00,SSW,202,0.0,2.0,88,0.00,,SCT024TCU,0.00,0.00,VWS V14.01,2013-08-05 05:45:00,
2013-08-05 01:50:00,78.9,75.1,30.00,SSW,202,0.0,3.0,88,0.00,,SCT024TCU,0.00,0.00,VWS V14.01,2013-08-05 05:50:00,
2013-08-05 01:55:00,78.9,75.1,29.99,SSW,202,0.0,3.0,88,0.00,,SCT024TCU,0.00,0.00,VWS V14.01,2013-08-05 05:55:00,
2013-08-05 02:00:00,79.0,75.2,29.99,SSW,202,1.0,3.0,88,0.00,,SCT024TCU,0.00,0.00,VWS V14.01,2013-08-05 06:00:00,
2013-08-05 02:05:00,79.0,75.2,29.99,SSW,202,1.0,4.0,88,0.00,,SCT024TCU,0.00,0.00,VWS V14.01,2013-08-05 06:05:00,
2013-08-05 02:10:00,79.0,75.2,29.99,SSW,202,1.0,4.0,88,0.00,,SCT024TCU,0.00,0.00,VWS V14.01,2013-08-05 06:10:00,
2013-08-05 02:15:00,79.0,75.2,29.99,SSW,202,1.0,4.0,88,0.00,,SCT024TCU,0.00,0.00,VWS V14.01,2013-08-05 06:15:00,
2013-08-05 02:20:00,78.9,75.1,29.99,SSW,202,0.0,2.0,88,0.00,,SCT024TCU,0.00,0.00,VWS V14.01,2013-08-05 06:20:00,
2013-08-05 02:25:00,78.9,75.1,29.99,SSW,202,0.0,2.0,88,0.00,,SCT024TCU,0.00,0.00,VWS V14.01,2013-08-05 06:25:00,
2013-08-05 02:30:00,78.8,74.9,29.99,SSW,202,0.0,2.0,88,0.00,,SCT024TCU,0.00,0.00,VWS V14.01,2013-08-05 06:30:00,
2013-08-05 02:35:00,78.8,74.9,29.99,SSW,202,1.0,3.0,88,0.00,,SCT024TCU,0.00,0.00,VWS V14.01,2013-08-05 06:35:00,
2013-08-05 02:40:00,78.8,74.9,29.98,SSW,202,0.0,2.0,88,0.00,,-RA,0.00,0.00,VWS V14.01,2013-08-05 06:40:00,
2013-08-05 02:45:00,78.8,74.9,29.98,SSW,202,0.0,2.0,88,0.00,,-RA,0.00,0.00,VWS V14.01,2013-08-05 06:45:00,
2013-08-05 02:50:00,78.9,75.1,29.98,SSW,202,1.0,4.0,88,0.00,,-RA,0.00,0.00,VWS V14.01,2013-08-05 06:50:00,
2013-08-05 02:55:00,78.9,75.1,29.97,SSW,202,1.0,4.0,88,0.00,,-RA,0.00,0.00,VWS V14.01,2013-08-05 06:55:00,
2013-08-05 03:00:00,78.9,75.1,29.97,SSW,202,1.0,4.0,88,0.00,,-RA,0.00,0.00,VWS V14.01,2013-08-05 07:00:00,
2013-08-05 03:05:00,78.9,75.1,29.97,SSW,202,0.0,3.0,88,0.00,,-RA,0.00,0.00,VWS V14.01,2013-08-05 07:05:00,
2013-08-05 03:10:00,78.9,75.1,29.97,SSW,202,1.0,3.0,88,0.00,,-RA,0.00,0.00,VWS V14.01,2013-08-05 07:10:00,
2013-08-05 03:15:00,79.0,75.2,29.97,SSW,202,1.0,3.0,88,0.00,,-RA,0.00,0.00,VWS V14.01,2013-08-05 07:15:00,
2013-08-05 03:20:00,79.0,75.2,29.97,SSW,202,0.0,1.0,88,0.00,,-RA,0.00,0.00,VWS V14.01,2013-08-05 07:20:00,
2013-08-05 03:25:00,79.0,75.2,29.97,SSW,202,1.0,3.0,88,0.00,,-RA,0.00,0.00,VWS V14.01,2013-08-05 07:25:00,
2013-08-05 03:30:00,78.9,75.1,29.97,SSW,202,0.0,1.0,88,0.00,,-RA,0.00,0.00,VWS V14.01,2013-08-05 07:30:00,
2013-08-05 03:35:00,78.9,75.1,29.97,SSW,202,1.0,3.0,88,0.00,,-RA,0.00,0.00,VWS V14.01,2013-08-05 07:35:00,
2013-08-05 03:40:00,78.8,74.9,29.96,SSW,202,1.0,3.0,88,0.00,,-RA,0.00,0.00,VWS V14.01,2013-08-05 07:40:00,
2013-08-05 03:45:00,78.8,74.9,29.96,SSW,202,0.0,2.0,88,0.00,,-RA,0.00,0.00,VWS V14.01,2013-08-05 07:45:00,
2013-08-05 03:50:00,78.7,74.8,29.96,SSW,202,0.0,3.0,88,0.00,,-RA,0.00,0.00,VWS V14.01,2013-08-05 07:50:00,
2013-08-05 03:55:00,78.7,75.2,29.96,SSW,202,0.0,2.0,89,0.00,,-RA,0.00,0.00,VWS V14.01,2013-08-05 07:55:00,
2013-08-05 04:00:00,78.7,75.2,29.96,SSW,202,0.0,2.0,89,0.00,,-RA,0.00,0.00,VWS V14.01,2013-08-05 08:00:00,
2013-08-05 04:10:00,78.7,75.2,29.96,SSW,202,1.0,2.0,89,0.00,,-RA,0.00,0.00,VWS V14.01,2013-08-05 08:10:00,
2013-08-05 04:15:00,78.6,75.1,29.96,SSW,202,0.0,2.0,89,0.00,,-RA,0.00,0.00,VWS V14.01,2013-08-05 08:15:00,
2013-08-05 04:20:00,78.6,75.1,29.96,SSW,202,1.0,3.0,89,0.00,,-RA,0.00,0.00,VWS V14.01,2013-08-05 08:20:00,
2013-08-05 04:25:00,78.5,75.0,29.96,SSW,202,0.0,1.0,89,0.00,,-RA,0.00,0.00,VWS V14.01,2013-08-05 08:25:00,
2013-08-05 04:30:00,78.5,75.0,29.96,SSW,202,0.0,2.0,89,0.00,,-RA,0.00,0.00,VWS V14.01,2013-08-05 08:30:00,
2013-08-05 04:35:00,78.5,75.0,29.95,SSW,202,0.0,2.0,89,0.00,,-RA,0.00,0.00,VWS V14.01,2013-08-05 08:35:00,
2013-08-05 04:40:00,78.5,75.0,29.95,SSW,202,0.0,2.0,89,0.00,,-RA,0.00,0.00,VWS V14.01,2013-08-05 08:40:00,
2013-08-05 04:45:00,78.5,75.0,29.95,SSW,202,0.0,2.0,89,0.00,,-RA,0.00,0.00,VWS V14.01,2013-08-05 08:45:00,
2013-08-05 04:50:00,78.5,75.3,29.95,SSW,202,0.0,1.0,90,0.00,,-RA,0.00,0.00,VWS V14.01,2013-08-05 08:50:00,
2013-08-05 04:55:00,78.5,75.3,29.95,SSW,202,0.0,1.0,90,0.00,,-RA,0.00,0.00,VWS V14.01,2013-08-05 08:55:00,
2013-08-05 05:00:00,78.5,75.3,29.95,SSW,202,0.0,0.0,90,0.00,,-RA,0.00,0.00,VWS V14.01,2013-08-05 09:00:00,
2013-08-05 05:05:00,78.5,75.3,29.95,SSW,202,0.0,0.0,90,0.00,,-RA,0.00,0.00,VWS V14.01,2013-08-05 09:05:00,
2013-08-05 05:10:00,78.5,75.3,29.96,SSW,202,0.0,0.0,90,0.00,,-RA,0.00,0.00,VWS V14.01,2013-08-05 09:10:00,
2013-08-05 05:15:00,78.5,75.3,29.96,SSW,202,0.0,0.0,90,0.00,,-RA,0.00,0.00,VWS V14.01,2013-08-05 09:15:00,
2013-08-05 05:20:00,78.4,75.2,29.95,SSW,202,0.0,0.0,90,0.00,,-RA,0.00,0.00,VWS V14.01,2013-08-05 09:20:00,
2013-08-05 05:25:00,78.4,75.2,29.95,SSW,202,0.0,0.0,90,0.00,,-RA,0.00,0.00,VWS V14.01,2013-08-05 09:25:00,
2013-08-05 05:30:00,78.4,75.2,29.95,SSW,202,0.0,0.0,90,0.00,,-RA,0.00,0.00,VWS V14.01,2013-08-05 09:30:00,
2013-08-05 05:35:00,78.3,75.1,29.95,SSW,202,0.0,0.0,90,0.00,,-RA,0.00,0.00,VWS V14.01,2013-08-05 09:35:00,
2013-08-05 05:40:00,78.3,75.1,29.96,SSW,202,0.0,0.0,90,0.00,,-RA,0.00,0.00,VWS V14.01,2013-08-05 09:40:00,
2013-08-05 05:45:00,78.3,75.5,29.95,SSW,202,0.0,3.0,91,0.00,,-RA,0.00,0.00,VWS V14.01,2013-08-05 09:45:00,
2013-08-05 05:50:00,78.2,75.4,29.96,SSW,202,0.0,2.0,91,0.00,,-RA,0.00,0.00,VWS V14.01,2013-08-05 09:50:00,
2013-08-05 05:55:00,78.2,75.4,29.96,SSW,202,0.0,1.0,91,0.00,,-RA,0.00,0.00,VWS V14.01,2013-08-05 09:55:00,
2013-08-05 06:00:00,78.2,75.4,29.96,SSW,202,0.0,1.0,91,0.00,,-RA,0.00,0.00,VWS V14.01,2013-08-05 10:00:00,
2013-08-05 06:05:00,78.2,75.4,29.96,SSW,202,0.0,1.0,91,0.00,,-RA,0.00,0.00,VWS V14.01,2013-08-05 10:05:00,
2013-08-05 06:10:00,78.2,75.4,29.96,SSW,202,0.0,1.0,91,0.00,,-RA,0.00,0.00,VWS V14.01,2013-08-05 10:10:00,
2013-08-05 06:15:00,78.2,75.4,29.96,SSW,202,0.0,1.0,91,0.00,,-RA,0.00,0.00,VWS V14.01,2013-08-05 10:15:00,
2013-08-05 06:20:00,78.2,75.4,29.96,SSW,202,0.0,0.0,91,0.00,,-RA,0.00,0.00,VWS V14.01,2013-08-05 10:20:00,
2013-08-05 06:25:00,78.2,75.4,29.96,SSW,202,0.0,1.0,91,0.00,,-RA,0.00,0.00,VWS V14.01,2013-08-05 10:25:00,
2013-08-05 06:30:00,78.2,75.4,29.97,SSW,202,0.0,1.0,91,0.00,,-RA,0.00,0.00,VWS V14.01,2013-08-05 10:30:00,
2013-08-05 06:35:00,78.2,75.4,29.97,SSW,202,0.0,1.0,91,0.00,,-RA,0.00,0.00,VWS V14.01,2013-08-05 10:35:00,
2013-08-05 06:40:00,78.2,75.4,29.97,SSW,202,0.0,1.0,91,0.00,,-RA,0.00,0.00,VWS V14.01,2013-08-05 10:40:00,
2013-08-05 06:45:00,78.2,75.4,29.97,SSW,202,0.0,1.0,91,0.00,,-RA,0.00,0.00,VWS V14.01,2013-08-05 10:45:00,
2013-08-05 06:50:00,78.2,75.4,29.98,SSW,202,0.0,1.0,91,0.00,,-RA,0.00,0.00,VWS V14.01,2013-08-05 10:50:00,
2013-08-05 06:55:00,78.2,75.7,29.98,SSW,202,0.0,0.0,92,0.00,,-RA,0.00,0.00,VWS V14.01,2013-08-05 10:55:00,
2013-08-05 07:00:00,78.3,75.8,29.98,SSW,202,0.0,1.0,92,0.00,,-RA,0.00,5.00,VWS V14.01,2013-08-05 11:00:00,
2013-08-05 07:05:00,78.3,75.8,29.98,SSW,202,0.0,1.0,92,0.00,,-RA,0.00,10.00,VWS V14.01,2013-08-05 11:05:00,
2013-08-05 07:10:00,78.4,75.9,29.98,SSW,202,0.0,0.0,92,0.00,,-RA,0.00,15.00,VWS V14.01,2013-08-05 11:10:00,
2013-08-05 07:15:00,78.4,75.9,29.98,SSW,202,0.0,1.0,92,0.00,,-RA,0.00,24.00,VWS V14.01,2013-08-05 11:15:00,
2013-08-05 07:20:00,78.5,76.0,29.98,SSW,202,0.0,1.0,92,0.00,,-RA,0.00,38.00,VWS V14.01,2013-08-05 11:20:00,
2013-08-05 07:25:00,78.7,76.2,29.98,SSW,202,0.0,2.0,92,0.00,,-RA,0.00,43.00,VWS V14.01,2013-08-05 11:25:00,
2013-08-05 07:30:00,78.8,76.3,29.98,SSW,202,0.0,1.0,92,0.00,,-RA,0.00,57.00,VWS V14.01,2013-08-05 11:30:00,
2013-08-05 07:35:00,79.0,76.8,29.98,SSW,202,0.0,0.0,93,0.00,,-RA,0.00,94.00,VWS V14.01,2013-08-05 11:35:00,
2013-08-05 07:40:00,79.3,77.1,29.99,SSW,202,0.0,1.0,93,0.00,,-RA,0.00,117.00,VWS V14.01,2013-08-05 11:40:00,
2013-08-05 07:45:00,79.7,77.5,29.99,SSW,202,0.0,1.0,93,0.00,,-RA,0.00,140.00,VWS V14.01,2013-08-05 11:45:00,
2013-08-05 07:50:00,80.1,77.9,29.99,SSW,202,0.0,2.0,93,0.00,,-RA,0.00,118.00,VWS V14.01,2013-08-05 11:50:00,
2013-08-05 07:55:00,80.5,78.3,29.99,SSW,202,0.0,2.0,93,0.00,,-RA,0.00,125.00,VWS V14.01,2013-08-05 11:55:00,
2013-08-05 08:00:00,80.8,78.6,29.99,SSW,202,0.0,2.0,93,0.00,,-RA,0.00,187.00,VWS V14.01,2013-08-05 12:00:00,
2013-08-05 08:05:00,81.2,79.0,29.99,SSW,202,0.0,3.0,93,0.00,,-RA,0.00,247.00,VWS V14.01,2013-08-05 12:05:00,
2013-08-05 08:10:00,81.5,79.3,29.99,SSW,202,1.0,3.0,93,0.00,,-RA,0.00,272.00,VWS V14.01,2013-08-05 12:10:00,
2013-08-05 08:15:00,81.8,79.6,29.99,SSW,202,1.0,4.0,93,0.00,,-RA,0.00,286.00,VWS V14.01,2013-08-05 12:15:00,
2013-08-05 08:20:00,82.0,79.8,29.99,West,270,2.0,5.0,93,0.00,,-RA,0.00,215.00,VWS V14.01,2013-08-05 12:20:00,
2013-08-05 08:25:00,82.2,79.7,29.99,WSW,248,1.0,4.0,92,0.00,,-RA,0.00,177.00,VWS V14.01,2013-08-05 12:25:00,
2013-08-05 08:30:00,82.5,79.9,29.99,WSW,248,1.0,5.0,92,0.00,,-RA,0.00,312.00,VWS V14.01,2013-08-05 12:30:00,
2013-08-05 08:35:00,82.5,79.3,30.00,West,270,3.0,7.0,90,0.00,,-RA,0.00,271.00,VWS V14.01,2013-08-05 12:35:00,
2013-08-05 08:40:00,82.9,79.3,30.00,SW,225,3.0,9.0,89,0.00,,-RA,0.00,250.00,VWS V14.01,2013-08-05 12:40:00,
2013-08-05 08:45:00,83.4,79.5,30.00,WSW,248,3.0,8.0,88,0.00,,-RA,0.00,349.00,VWS V14.01,2013-08-05 12:45:00,
2013-08-05 08:50:00,83.7,79.1,30.00,West,270,4.0,10.0,86,0.00,,-RA,0.00,358.00,VWS V14.01,2013-08-05 12:50:00,
2013-08-05 08:55:00,84.0,79.0,30.00,WSW,248,3.0,9.0,85,0.00,,-RA,0.00,381.00,VWS V14.01,2013-08-05 12:55:00,
2013-08-05 09:00:00,84.3,78.9,30.00,WSW,248,3.0,7.0,84,0.00,,-RA,0.00,370.00,VWS V14.01,2013-08-05 13:00:00,
2013-08-05 09:05:00,84.5,79.1,30.00,West,270,4.0,10.0,84,0.00,,-RA,0.00,399.00,VWS V14.01,2013-08-05 13:05:00,
2013-08-05 09:10:00,84.6,78.9,30.00,WNW,292,4.0,10.0,83,0.00,,-RA,0.00,414.00,VWS V14.01,2013-08-05 13:10:00,
2013-08-05 09:15:00,84.6,78.9,30.00,West,270,5.0,10.0,83,0.00,,-RA,0.00,362.00,VWS V14.01,2013-08-05 13:15:00,
2013-08-05 09:20:00,84.6,78.5,30.01,NW,315,4.0,9.0,82,0.00,,-RA,0.00,243.00,VWS V14.01,2013-08-05 13:20:00,
2013-08-05 09:25:00,84.6,78.1,30.00,WNW,292,5.0,10.0,81,0.00,,-RA,0.00,156.00,VWS V14.01,2013-08-05 13:25:00,
2013-08-05 09:30:00,84.6,78.1,30.00,West,270,5.0,11.0,81,0.00,,-RA,0.00,461.00,VWS V14.01,2013-08-05 13:30:00,
2013-08-05 09:35:00,85.0,78.5,30.00,West,270,3.0,6.0,81,0.00,,-RA,0.00,303.00,VWS V14.01,2013-08-05 13:35:00,
2013-08-05 09:40:00,85.2,78.7,30.00,West,270,4.0,9.0,81,0.00,,-RA,0.00,201.00,VWS V14.01,2013-08-05 13:40:00,
2013-08-05 09:45:00,85.2,78.7,30.00,West,270,3.0,7.0,81,0.00,,-RA,0.00,460.00,VWS V14.01,2013-08-05 13:45:00,
2013-08-05 09:50:00,85.2,77.9,30.00,WNW,292,5.0,10.0,79,0.00,,-RA,0.00,513.00,VWS V14.01,2013-08-05 13:50:00,
2013-08-05 09:55:00,85.2,77.9,30.00,WNW,292,5.0,11.0,79,0.00,,-RA,0.00,538.00,VWS V14.01,2013-08-05 13:55:00,
2013-08-05 10:00:00,85.4,78.2,30.00,WNW,292,5.0,11.0,79,0.00,,-RA,0.00,563.00,VWS V14.01,2013-08-05 14:00:00,
2013-08-05 10:05:00,85.7,78.1,29.99,WNW,292,4.0,9.0,78,0.00,,-RA,0.00,369.00,VWS V14.01,2013-08-05 14:05:00,
2013-08-05 10:10:00,85.9,77.9,30.00,West,270,4.0,9.0,77,0.00,,-RA,0.00,461.00,VWS V14.01,2013-08-05 14:10:00,
2013-08-05 10:15:00,86.1,78.1,30.00,WSW,248,3.0,9.0,77,0.00,,-RA,0.00,612.00,VWS V14.01,2013-08-05 14:15:00,
2013-08-05 10:20:00,86.5,77.6,30.00,West,270,5.0,10.0,75,0.00,,-RA,0.00,344.00,VWS V14.01,2013-08-05 14:20:00,
2013-08-05 10:25:00,86.5,77.6,30.00,NW,315,4.0,9.0,75,0.00,,-RA,0.00,670.00,VWS V14.01,2013-08-05 14:25:00,
2013-08-05 10:30:00,86.8,77.1,29.99,NW,315,6.0,12.0,73,0.00,,-RA,0.00,510.00,VWS V14.01,2013-08-05 14:30:00,
2013-08-05 10:35:00,87.0,77.7,29.99,NNW,338,4.0,9.0,74,0.00,,-RA,0.00,363.00,VWS V14.01,2013-08-05 14:35:00,
2013-08-05 10:40:00,87.3,78.0,29.99,NNW,338,3.0,6.0,74,0.00,,-RA,0.00,364.00,VWS V14.01,2013-08-05 14:40:00,
2013-08-05 10:45:00,87.4,78.1,30.00,West,270,2.0,6.0,74,0.00,,-RA,0.00,223.00,VWS V14.01,2013-08-05 14:45:00,
2013-08-05 10:50:00,87.5,77.8,30.00,WNW,292,3.0,7.0,73,0.00,,-RA,0.00,235.00,VWS V14.01,2013-08-05 14:50:00,
2013-08-05 10:55:00,87.7,78.0,30.00,SW,225,3.0,6.0,73,0.00,,-RA,0.00,563.00,VWS V14.01,2013-08-05 14:55:00,
2013-08-05 11:00:00,87.5,78.2,30.00,SW,225,6.0,15.0,74,0.00,,-RA,0.00,132.00,VWS V14.01,2013-08-05 15:00:00,
2013-08-05 11:05:00,87.1,79.0,30.00,SW,225,2.0,9.0,77,0.00,,-RA,0.00,135.00,VWS V14.01,2013-08-05 15:05:00,
2013-08-05 11:10:00,86.6,79.3,30.01,SW,225,3.0,6.0,79,0.01,,-RA,0.01,210.00,VWS V14.01,2013-08-05 15:10:00,
2013-08-05 11:15:00,86.0,79.1,30.00,SW,225,2.0,6.0,80,0.01,,-RA,0.01,302.00,VWS V14.01,2013-08-05 15:15:00,
2013-08-05 11:20:00,85.6,79.5,30.00,WSW,248,2.0,9.0,82,0.01,,-RA,0.01,470.00,VWS V14.01,2013-08-05 15:20:00,
2013-08-05 11:25:00,85.2,79.1,30.00,SW,225,3.0,7.0,82,0.01,,-RA,0.01,329.00,VWS V14.01,2013-08-05 15:25:00,
2013-08-05 11:30:00,84.5,77.3,30.00,West,270,4.0,9.0,79,0.01,,-RA,0.01,837.00,VWS V14.01,2013-08-05 15:30:00,
2013-08-05 11:35:00,84.5,76.9,30.01,West,270,4.0,9.0,78,0.01,,-RA,0.01,350.00,VWS V14.01,2013-08-05 15:35:00,
2013-08-05 11:40:00,84.5,75.7,30.00,West,270,4.0,7.0,75,0.01,,-RA,0.01,413.00,VWS V14.01,2013-08-05 15:40:00,
2013-08-05 11:45:00,84.9,76.5,30.00,WSW,248,5.0,10.0,76,0.01,,-RA,0.01,854.00,VWS V14.01,2013-08-05 15:45:00,
2013-08-05 11:50:00,85.2,76.4,30.00,West,270,4.0,9.0,75,0.01,,-RA,0.01,821.00,VWS V14.01,2013-08-05 15:50:00,
2013-08-05 11:55:00,86.0,75.9,30.00,WSW,248,4.0,7.0,72,0.01,,-RA,0.01,812.00,VWS V14.01,2013-08-05 15:55:00,
2013-08-05 12:00:00,87.0,75.6,30.00,SW,225,3.0,6.0,69,0.01,,-RA,0.01,817.00,VWS V14.01,2013-08-05 16:00:00,
2013-08-05 12:05:00,88.1,75.8,29.99,SW,225,2.0,6.0,67,0.01,,-RA,0.01,839.00,VWS V14.01,2013-08-05 16:05:00,
2013-08-05 12:10:00,89.0,76.6,30.00,SW,225,3.0,9.0,67,0.01,,-RA,0.01,877.00,VWS V14.01,2013-08-05 16:10:00,
2013-08-05 12:15:00,90.1,77.2,29.99,SW,225,3.0,7.0,66,0.00,,-RA,0.01,929.00,VWS V14.01,2013-08-05 16:15:00,
2013-08-05 12:20:00,90.9,77.0,30.00,SW,225,3.0,7.0,64,0.00,,-RA,0.01,404.00,VWS V14.01,2013-08-05 16:20:00,
2013-08-05 12:25:00,91.4,77.0,29.99,SW,225,2.0,6.0,63,0.00,,-RA,0.01,691.00,VWS V14.01,2013-08-05 16:25:00,
2013-08-05 12:30:00,91.9,77.0,29.99,SW,225,2.0,7.0,62,0.00,,-RA,0.01,931.00,VWS V14.01,2013-08-05 16:30:00,
2013-08-05 12:35:00,92.5,77.6,29.98,SW,225,2.0,8.0,62,0.00,,-RA,0.01,947.00,VWS V14.01,2013-08-05 16:35:00,
2013-08-05 12:40:00,92.7,76.8,29.99,WSW,248,2.0,8.0,60,0.00,,-RA,0.01,974.00,VWS V14.01,2013-08-05 16:40:00,
2013-08-05 12:45:00,92.8,76.4,29.99,WSW,248,2.0,8.0,59,0.00,,-RA,0.01,994.00,VWS V14.01,2013-08-05 16:45:00,
2013-08-05 12:50:00,92.9,76.5,29.99,SW,225,3.0,11.0,59,0.00,,-RA,0.01,880.00,VWS V14.01,2013-08-05 16:50:00,
2013-08-05 12:55:00,92.5,76.6,29.99,WNW,292,4.0,14.0,60,0.00,,-RA,0.01,410.00,VWS V14.01,2013-08-05 16:55:00,
2013-08-05 13:00:00,90.3,75.0,29.99,NW,315,8.0,13.0,61,0.00,,-RA,0.01,274.00,VWS V14.01,2013-08-05 17:00:00,
2013-08-05 13:05:00,88.1,75.8,29.99,WNW,292,7.0,14.0,67,0.00,,-RA,0.01,258.00,VWS V14.01,2013-08-05 17:05:00,
2013-08-05 13:10:00,85.7,74.4,29.99,NW,315,6.0,12.0,69,0.01,,-RA,0.02,258.00,VWS V14.01,2013-08-05 17:10:00,
2013-08-05 13:15:00,84.1,73.7,29.98,NW,315,5.0,10.0,71,0.01,,-RA,0.02,261.00,VWS V14.01,2013-08-05 17:15:00,
2013-08-05 13:20:00,83.5,73.9,29.99,WNW,292,3.0,6.0,73,0.01,,-RA,0.02,242.00,VWS V14.01,2013-08-05 17:20:00,
2013-08-05 13:25:00,83.6,74.8,29.98,West,270,1.0,4.0,75,0.01,,-RA,0.02,246.00,VWS V14.01,2013-08-05 17:25:00,
2013-08-05 13:30:00,83.5,75.1,29.99,WSW,248,2.0,7.0,76,0.01,,-RA,0.02,353.00,VWS V14.01,2013-08-05 17:30:00,
2013-08-05 13:35:00,84.2,75.8,29.99,SW,225,0.0,2.0,76,0.01,,-RA,0.02,502.00,VWS V14.01,2013-08-05 17:35:00,
2013-08-05 13:40:00,85.8,76.2,29.98,SW,225,1.0,5.0,73,0.01,,-RA,0.02,970.00,VWS V14.01,2013-08-05 17:40:00,
2013-08-05 13:45:00,87.0,77.7,29.98,WSW,248,2.0,6.0,74,0.01,,-RA,0.02,940.00,VWS V14.01,2013-08-05 17:45:00,
2013-08-05 13:50:00,88.6,79.2,29.98,WSW,248,2.0,7.0,74,0.01,,-RA,0.02,912.00,VWS V14.01,2013-08-05 17:50:00,
2013-08-05 13:55:00,89.7,78.6,29.97,SSW,202,4.0,9.0,70,0.01,,-RA,0.02,900.00,VWS V14.01,2013-08-05 17:55:00,
2013-08-05 14:00:00,90.6,79.0,29.96,SW,225,2.0,6.0,69,0.01,,-RA,0.02,868.00,VWS V14.01,2013-08-05 18:00:00,
2013-08-05 14:05:00,91.1,79.1,29.96,SW,225,3.0,7.0,68,0.01,,-RA,0.02,861.00,VWS V14.01,2013-08-05 18:05:00,
2013-08-05 14:10:00,91.1,79.1,29.96,SW,225,2.0,7.0,68,0.01,,-RA,0.02,870.00,VWS V14.01,2013-08-05 18:10:00,
2013-08-05 14:15:00,91.4,78.9,29.96,SW,225,1.0,6.0,67,0.00,,-RA,0.02,906.00,VWS V14.01,2013-08-05 18:15:00,
2013-08-05 14:20:00,92.3,78.4,29.96,SW,225,2.0,6.0,64,0.00,,-RA,0.02,780.00,VWS V14.01,2013-08-05 18:20:00,
2013-08-05 14:25:00,93.3,78.3,29.95,SW,225,3.0,8.0,62,0.00,,-RA,0.02,1021.00,VWS V14.01,2013-08-05 18:25:00,
2013-08-05 14:30:00,93.9,77.4,29.96,SSW,202,3.0,10.0,59,0.00,,-RA,0.02,461.00,VWS V14.01,2013-08-05 18:30:00,
2013-08-05 14:35:00,93.7,77.2,29.96,SW,225,3.0,10.0,59,0.00,,-RA,0.02,419.00,VWS V14.01,2013-08-05 18:35:00,
2013-08-05 14:40:00,93.3,77.8,29.95,SW,225,4.0,10.0,61,0.00,,-RA,0.02,415.00,VWS V14.01,2013-08-05 18:40:00,
2013-08-05 14:45:00,91.9,78.5,29.95,WSW,248,6.0,22.0,65,0.00,,-RA,0.02,841.00,VWS V14.01,2013-08-05 18:45:00,
2013-08-05 14:50:00,91.0,78.1,29.95,WSW,248,8.0,19.0,66,0.00,,-RA,0.02,927.00,VWS V14.01,2013-08-05 18:50:00,
2013-08-05 14:55:00,89.8,76.9,29.95,WSW,248,7.0,20.0,66,0.00,,-RA,0.02,985.00,VWS V14.01,2013-08-05 18:55:00,
2013-08-05 15:00:00,88.4,76.5,29.95,WSW,248,9.0,20.0,68,0.00,,-RA,0.02,970.00,VWS V14.01,2013-08-05 19:00:00,
2013-08-05 15:05:00,87.6,77.0,29.95,SW,225,8.0,16.0,71,0.00,,-RA,0.02,956.00,VWS V14.01,2013-08-05 19:05:00,
2013-08-05 15:10:00,87.0,76.9,29.95,SW,225,9.0,17.0,72,0.00,,-RA,0.02,608.00,VWS V14.01,2013-08-05 19:10:00,
2013-08-05 15:15:00,86.0,75.9,29.96,WSW,248,8.0,20.0,72,0.00,,-RA,0.02,106.00,VWS V14.01,2013-08-05 19:15:00,
2013-08-05 15:20:00,85.2,76.4,29.95,WSW,248,6.0,13.0,75,0.00,,-RA,0.02,86.00,VWS V14.01,2013-08-05 19:20:00,
2013-08-05 15:25:00,83.9,76.3,29.95,WSW,248,5.0,13.0,78,0.00,,-RA,0.02,83.00,VWS V14.01,2013-08-05 19:25:00,
2013-08-05 15:30:00,82.9,76.1,29.95,SW,225,2.0,7.0,80,0.00,,-RA,0.02,94.00,VWS V14.01,2013-08-05 19:30:00,
2013-08-05 15:35:00,81.8,75.4,29.95,SW,225,3.0,9.0,81,0.01,,-RA,0.03,111.00,VWS V14.01,2013-08-05 19:35:00,
2013-08-05 15:40:00,80.9,74.5,29.95,WNW,292,3.0,5.0,81,0.01,,-RA,0.03,169.00,VWS V14.01,2013-08-05 19:40:00,
2013-08-05 15:45:00,80.7,75.1,29.95,WSW,248,1.0,4.0,83,0.01,,-RA,0.03,295.00,VWS V14.01,2013-08-05 19:45:00,
2013-08-05 15:50:00,81.2,76.3,29.95,SW,225,0.0,3.0,85,0.01,,-RA,0.03,892.00,VWS V14.01,2013-08-05 19:50:00,
2013-08-05 15:55:00,81.3,76.0,29.94,SW,225,1.0,4.0,84,0.01,,-RA,0.03,865.00,VWS V14.01,2013-08-05 19:55:00,
2013-08-05 16:00:00,82.0,76.7,29.95,SSW,202,2.0,6.0,84,0.01,,-RA,0.03,813.00,VWS V14.01,2013-08-05 20:00:00,
2013-08-05 16:05:00,83.0,77.3,29.95,SSW,202,2.0,5.0,83,0.01,,-RA,0.03,752.00,VWS V14.01,2013-08-05 20:05:00,
2013-08-05 16:10:00,84.1,77.3,29.94,SSW,202,2.0,7.0,80,0.01,,-RA,0.03,721.00,VWS V14.01,2013-08-05 20:10:00,
2013-08-05 16:15:00,85.1,77.1,29.94,SSW,202,4.0,11.0,77,0.01,,-RA,0.03,704.00,VWS V14.01,2013-08-05 20:15:00,
2013-08-05 16:20:00,86.3,77.4,29.94,SSW,202,2.0,7.0,75,0.01,,-RA,0.03,683.00,VWS V14.01,2013-08-05 20:20:00,
2013-08-05 16:25:00,87.1,77.4,29.94,South,180,4.0,9.0,73,0.01,,-RA,0.03,687.00,VWS V14.01,2013-08-05 20:25:00,
2013-08-05 16:30:00,88.0,77.8,29.95,SSW,202,1.0,6.0,72,0.01,,-RA,0.03,662.00,VWS V14.01,2013-08-05 20:30:00,
2013-08-05 16:35:00,88.6,75.8,29.94,WSW,248,4.0,14.0,66,0.01,,-RA,0.03,555.00,VWS V14.01,2013-08-05 20:35:00,
2013-08-05 16:40:00,88.7,75.4,29.94,WSW,248,5.0,11.0,65,0.00,,-RA,0.03,240.00,VWS V14.01,2013-08-05 20:40:00,
2013-08-05 16:45:00,88.6,75.3,29.93,SSW,202,3.0,11.0,65,0.00,,-RA,0.03,148.00,VWS V14.01,2013-08-05 20:45:00,
2013-08-05 16:50:00,88.3,75.5,29.94,SSW,202,4.0,12.0,66,0.00,,-RA,0.03,120.00,VWS V14.01,2013-08-05 20:50:00,
2013-08-05 16:55:00,87.9,75.6,29.94,SW,225,2.0,7.0,67,0.00,,-RA,0.03,93.00,VWS V14.01,2013-08-05 20:55:00,
2013-08-05 17:00:00,87.5,75.6,29.93,SW,225,4.0,10.0,68,0.00,,-RA,0.03,77.00,VWS V14.01,2013-08-05 21:00:00,
2013-08-05 17:05:00,87.1,76.1,29.93,SW,225,3.0,12.0,70,0.00,,-RA,0.03,69.00,VWS V14.01,2013-08-05 21:05:00,
2013-08-05 17:10:00,86.6,76.1,29.93,SW,225,3.0,11.0,71,0.00,,-RA,0.03,65.00,VWS V14.01,2013-08-05 21:10:00,
2013-08-05 17:15:00,86.2,76.1,29.92,SW,225,3.0,11.0,72,0.00,,-RA,0.03,68.00,VWS V14.01,2013-08-05 21:15:00,
2013-08-05 17:20:00,85.8,75.7,29.92,SW,225,3.0,9.0,72,0.00,,-RA,0.03,76.00,VWS V14.01,2013-08-05 21:20:00,
2013-08-05 17:25:00,85.6,76.0,29.92,SSW,202,1.0,4.0,73,0.00,,-RA,0.03,82.00,VWS V14.01,2013-08-05 21:25:00,
2013-08-05 17:30:00,85.4,76.2,29.92,South,180,1.0,4.0,74,0.00,,-RA,0.03,77.00,VWS V14.01,2013-08-05 21:30:00,
2013-08-05 17:35:00,85.3,76.1,29.92,SW,225,2.0,6.0,74,0.00,,-RA,0.03,65.00,VWS V14.01,2013-08-05 21:35:00,
2013-08-05 17:40:00,85.2,76.0,29.92,SW,225,2.0,9.0,74,0.00,,-RA,0.03,53.00,VWS V14.01,2013-08-05 21:40:00,
2013-08-05 17:45:00,85.0,76.2,29.92,SSW,202,2.0,11.0,75,0.00,,-RA,0.03,41.00,VWS V14.01,2013-08-05 21:45:00,
2013-08-05 17:50:00,84.8,76.0,29.92,SSW,202,1.0,5.0,75,0.00,,-RA,0.03,31.00,VWS V14.01,2013-08-05 21:50:00,
2013-08-05 17:55:00,84.7,76.3,29.92,SW,225,1.0,3.0,76,0.00,,-RA,0.03,24.00,VWS V14.01,2013-08-05 21:55:00,
2013-08-05 18:00:00,84.7,76.3,29.92,SW,225,1.0,4.0,76,0.00,,-RA,0.03,19.00,VWS V14.01,2013-08-05 22:00:00,
2013-08-05 18:05:00,84.5,76.5,29.93,SW,225,2.0,6.0,77,0.00,,-RA,0.03,15.00,VWS V14.01,2013-08-05 22:05:00,
2013-08-05 18:10:00,84.1,76.5,29.93,SW,225,3.0,9.0,78,0.00,,-RA,0.03,14.00,VWS V14.01,2013-08-05 22:10:00,
2013-08-05 18:15:00,83.6,76.0,29.93,SW,225,3.0,9.0,78,0.00,,-RA,0.03,12.00,VWS V14.01,2013-08-05 22:15:00,
2013-08-05 18:20:00,83.1,75.2,29.94,SW,225,3.0,10.0,77,0.00,,-RA,0.03,12.00,VWS V14.01,2013-08-05 22:20:00,
2013-08-05 18:25:00,82.6,74.7,29.94,SW,225,2.0,10.0,77,0.00,,-RA,0.03,12.00,VWS V14.01,2013-08-05 22:25:00,
2013-08-05 18:30:00,82.1,73.8,29.94,WSW,248,4.0,8.0,76,0.00,,-RA,0.03,11.00,VWS V14.01,2013-08-05 22:30:00,
2013-08-05 18:35:00,81.9,74.0,29.93,WSW,248,2.0,6.0,77,0.00,,-RA,0.03,11.00,VWS V14.01,2013-08-05 22:35:00,
2013-08-05 18:40:00,81.7,73.8,29.93,WSW,248,1.0,7.0,77,0.00,,-RA,0.03,11.00,VWS V14.01,2013-08-05 22:40:00,
2013-08-05 18:45:00,81.4,73.5,29.93,West,270,2.0,6.0,77,0.00,,-RA,0.03,11.00,VWS V14.01,2013-08-05 22:45:00,
2013-08-05 18:50:00,81.0,73.1,29.93,WNW,292,3.0,5.0,77,0.00,,-RA,0.03,12.00,VWS V14.01,2013-08-05 22:50:00,
2013-08-05 18:55:00,80.7,72.8,29.93,WNW,292,2.0,5.0,77,0.00,,-RA,0.03,12.00,VWS V14.01,2013-08-05 22:55:00,
2013-08-05 19:00:00,80.6,73.1,29.93,West,270,3.0,9.0,78,0.00,,-RA,0.03,12.00,VWS V14.01,2013-08-05 23:00:00,
2013-08-05 19:05:00,80.4,72.9,29.93,WNW,292,3.0,6.0,78,0.00,,-RA,0.03,12.00,VWS V14.01,2013-08-05 23:05:00,
2013-08-05 19:10:00,80.3,72.8,29.94,WNW,292,4.0,7.0,78,0.00,,-RA,0.03,13.00,VWS V14.01,2013-08-05 23:10:00,
2013-08-05 19:15:00,80.3,73.2,29.95,NW,315,4.0,9.0,79,0.00,,-RA,0.03,15.00,VWS V14.01,2013-08-05 23:15:00,
2013-08-05 19:20:00,80.2,73.5,29.95,NW,315,7.0,12.0,80,0.00,,-RA,0.03,16.00,VWS V14.01,2013-08-05 23:20:00,
2013-08-05 19:25:00,80.0,73.3,29.95,NW,315,5.0,10.0,80,0.00,,-RA,0.03,16.00,VWS V14.01,2013-08-05 23:25:00,
2013-08-05 19:30:00,79.7,73.0,29.95,WNW,292,5.0,11.0,80,0.00,,-RA,0.03,13.00,VWS V14.01,2013-08-05 23:30:00,
2013-08-05 19:35:00,79.5,72.8,29.95,WNW,292,5.0,11.0,80,0.00,,-RA,0.03,11.00,VWS V14.01,2013-08-05 23:35:00,
2013-08-05 19:40:00,79.3,73.0,29.95,WNW,292,2.0,7.0,81,0.00,,-RA,0.03,8.00,VWS V14.01,2013-08-05 23:40:00,
2013-08-05 19:45:00,79.2,72.9,29.95,WNW,292,3.0,7.0,81,0.00,,-RA,0.03,5.00,VWS V14.01,2013-08-05 23:45:00,
2013-08-05 19:50:00,79.0,73.0,29.96,WNW,292,3.0,7.0,82,0.00,,-RA,0.03,0.00,VWS V14.01,2013-08-05 23:50:00,
2013-08-05 19:55:00,78.8,72.8,29.96,WNW,292,4.0,7.0,82,0.00,,-RA,0.03,0.00,VWS V14.01,2013-08-05 23:55:00,
2013-08-05 20:00:00,78.7,73.1,29.96,WNW,292,3.0,6.0,83,0.00,,-RA,0.03,0.00,VWS V14.01,2013-08-06 00:00:00,
2013-08-05 20:05:00,78.6,73.0,29.96,WNW,292,3.0,6.0,83,0.00,,-RA,0.03,0.00,VWS V14.01,2013-08-06 00:05:00,
2013-08-05 20:10:00,78.5,73.3,29.96,WNW,292,4.0,7.0,84,0.00,,-RA,0.03,0.00,VWS V14.01,2013-08-06 00:10:00,
2013-08-05 20:15:00,78.4,73.5,29.96,WNW,292,4.0,7.0,85,0.00,,-RA,0.03,0.00,VWS V14.01,2013-08-06 00:15:00,
2013-08-05 20:20:00,78.2,73.7,29.96,WNW,292,4.0,7.0,86,0.00,,-RA,0.03,0.00,VWS V14.01,2013-08-06 00:20:00,
2013-08-05 20:25:00,78.1,73.6,29.96,West,270,3.0,10.0,86,0.00,,-RA,0.03,0.00,VWS V14.01,2013-08-06 00:25:00,
2013-08-05 20:30:00,78.0,73.8,29.96,WNW,292,4.0,7.0,87,0.00,,-RA,0.03,0.00,VWS V14.01,2013-08-06 00:30:00,
2013-08-05 20:35:00,78.0,73.8,29.96,WNW,292,3.0,8.0,87,0.00,,-RA,0.03,0.00,VWS V14.01,2013-08-06 00:35:00,
2013-08-05 20:40:00,78.0,74.2,29.96,NW,315,2.0,5.0,88,0.00,,-RA,0.03,0.00,VWS V14.01,2013-08-06 00:40:00,
2013-08-05 20:45:00,78.0,74.2,29.97,NW,315,1.0,4.0,88,0.00,,-RA,0.03,0.00,VWS V14.01,2013-08-06 00:45:00,
2013-08-05 20:50:00,78.1,74.3,29.97,NW,315,2.0,4.0,88,0.00,,-RA,0.03,0.00,VWS V14.01,2013-08-06 00:50:00,
2013-08-05 20:55:00,78.0,74.2,29.96,NNW,338,2.0,5.0,88,0.00,,-RA,0.03,0.00,VWS V14.01,2013-08-06 00:55:00,
2013-08-05 21:00:00,77.9,74.4,29.96,NNW,338,3.0,6.0,89,0.00,,-RA,0.03,0.00,VWS V14.01,2013-08-06 01:00:00,
2013-08-05 21:05:00,77.8,74.3,29.96,NNW,338,1.0,5.0,89,0.00,,-RA,0.03,0.00,VWS V14.01,2013-08-06 01:05:00,
2013-08-05 21:10:00,77.8,74.3,29.96,NNW,338,2.0,4.0,89,0.00,,-RA,0.03,0.00,VWS V14.01,2013-08-06 01:10:00,
2013-08-05 21:15:00,77.8,74.3,29.96,NNW,338,1.0,3.0,89,0.00,,-RA,0.03,0.00,VWS V14.01,2013-08-06 01:15:00,
2013-08-05 21:20:00,77.7,74.2,29.95,NNW,338,1.0,3.0,89,0.00,,-RA,0.03,0.00,VWS V14.01,2013-08-06 01:20:00,
2013-08-05 21:25:00,77.6,74.1,29.95,NNW,338,1.0,3.0,89,0.00,,-RA,0.03,0.00,VWS V14.01,2013-08-06 01:25:00,
2013-08-05 21:30:00,77.6,74.1,29.95,NNW,338,0.0,3.0,89,0.00,,-RA,0.03,0.00,VWS V14.01,2013-08-06 01:30:00,
2013-08-05 21:35:00,77.6,74.1,29.95,NNW,338,0.0,2.0,89,0.00,,-RA,0.03,0.00,VWS V14.01,2013-08-06 01:35:00,
2013-08-05 21:40:00,77.5,74.0,29.95,NNW,338,1.0,2.0,89,0.00,,-RA,0.03,0.00,VWS V14.01,2013-08-06 01:40:00,
2013-08-05 21:45:00,77.5,74.0,29.95,NNW,338,0.0,1.0,89,0.00,,-RA,0.03,0.00,VWS V14.01,2013-08-06 01:45:00,
2013-08-05 21:50:00,77.5,74.0,29.95,NNW,338,0.0,1.0,89,0.00,,-RA,0.03,0.00,VWS V14.01,2013-08-06 01:50:00,
2013-08-05 21:55:00,77.5,74.0,29.95,NNW,338,0.0,1.0,89,0.00,,-RA,0.03,0.00,VWS V14.01,2013-08-06 01:55:00,
2013-08-05 22:00:00,77.4,73.9,29.95,NNW,338,0.0,1.0,89,0.00,,-RA,0.03,0.00,VWS V14.01,2013-08-06 02:00:00,
2013-08-05 22:05:00,77.4,73.9,29.95,NNW,338,0.0,1.0,89,0.00,,-RA,0.03,0.00,VWS V14.01,2013-08-06 02:05:00,
2013-08-05 22:10:00,77.4,73.9,29.95,NNW,338,0.0,3.0,89,0.00,,-RA,0.03,0.00,VWS V14.01,2013-08-06 02:10:00,
2013-08-05 22:15:00,77.3,73.8,29.95,NNW,338,0.0,1.0,89,0.00,,-RA,0.03,0.00,VWS V14.01,2013-08-06 02:15:00,
2013-08-05 22:20:00,77.3,73.8,29.95,NNW,338,0.0,1.0,89,0.00,,-RA,0.03,0.00,VWS V14.01,2013-08-06 02:20:00,
2013-08-05 22:25:00,77.3,73.8,29.95,NNW,338,0.0,1.0,89,0.00,,-RA,0.03,0.00,VWS V14.01,2013-08-06 02:25:00,
2013-08-05 22:30:00,77.3,73.8,29.95,NNW,338,0.0,4.0,89,0.00,,-RA,0.03,0.00,VWS V14.01,2013-08-06 02:30:00,
2013-08-05 22:35:00,77.1,73.6,29.95,NNW,338,0.0,3.0,89,0.00,,-RA,0.03,0.00,VWS V14.01,2013-08-06 02:35:00,
2013-08-05 22:40:00,77.1,73.6,29.95,NNW,338,0.0,0.0,89,0.00,,-RA,0.03,0.00,VWS V14.01,2013-08-06 02:40:00,
2013-08-05 22:45:00,77.0,73.5,29.95,NNW,338,0.0,0.0,89,0.00,,-RA,0.03,0.00,VWS V14.01,2013-08-06 02:45:00,
2013-08-05 22:50:00,77.0,73.5,29.95,NNW,338,0.0,0.0,89,0.00,,-RA,0.03,0.00,VWS V14.01,2013-08-06 02:50:00,
2013-08-05 22:55:00,77.0,73.5,29.95,NNW,338,0.0,1.0,89,0.00,,-RA,0.03,0.00,VWS V14.01,2013-08-06 02:55:00,
2013-08-05 23:05:00,77.2,73.7,29.95,South,180,0.0,3.0,89,0.00,,-RA,0.03,0.00,VWS V14.01,2013-08-06 03:05:00,
2013-08-05 23:10:00,77.2,74.0,29.96,South,180,0.0,2.0,90,0.00,,-RA,0.03,0.00,VWS V14.01,2013-08-06 03:10:00,
2013-08-05 23:15:00,77.2,74.0,29.96,South,180,0.0,1.0,90,0.00,,-RA,0.03,0.00,VWS V14.01,2013-08-06 03:15:00,
2013-08-05 23:20:00,77.3,74.1,29.96,South,180,0.0,2.0,90,0.00,,-RA,0.03,0.00,VWS V14.01,2013-08-06 03:20:00,
2013-08-05 23:25:00,77.2,74.0,29.96,South,180,0.0,2.0,90,0.00,,-RA,0.03,0.00,VWS V14.01,2013-08-06 03:25:00,
2013-08-05 23:30:00,77.1,73.9,29.96,South,180,0.0,3.0,90,0.00,,-RA,0.03,0.00,VWS V14.01,2013-08-06 03:30:00,
2013-08-05 23:35:00,77.0,73.8,29.96,South,180,0.0,2.0,90,0.00,,-RA,0.03,0.00,VWS V14.01,2013-08-06 03:35:00,
2013-08-05 23:40:00,77.0,73.8,29.96,South,180,1.0,3.0,90,0.00,,-RA,0.03,0.00,VWS V14.01,2013-08-06 03:40:00,
2013-08-05 23:45:00,77.0,73.8,29.96,SSW,202,1.0,3.0,90,0.00,,-RA,0.03,0.00,VWS V14.01,2013-08-06 03:45:00,
2013-08-05 23:50:00,76.9,73.8,29.96,SSW,202,0.0,3.0,90,0.00,,-RA,0.03,0.00,VWS V14.01,2013-08-06 03:50:00,
2013-08-05 23:55:00,76.8,74.0,29.96,SSW,202,1.0,3.0,91,0.00,,-RA,0.03,0.00,VWS V14.01,2013-08-06 03:55:00,